TimePDT,TemperatureF,Dew PointF,Humidity,Sea Level PressureIn,VisibilityMPH,Wind Direction,Wind SpeedMPH,Gust SpeedMPH,PrecipitationIn,Events,Conditions,WindDirDegrees,DateUTC
12:15 AM,46.4,44.6,93,30.03,10.0,Calm,Calm,-,N/A,,Clear,0,2014-04-14 07:15:00
12:35 AM,46.4,44.6,93,30.03,10.0,Calm,Calm,-,N/A,,Clear,0,2014-04-14 07:35:00
12:55 AM,46.4,44.6,93,30.03,10.0,Calm,Calm,-,N/A,,Clear,0,2014-04-14 07:55:00
1:15 AM,44.6,42.8,93,30.03,10.0,Calm,Calm,-,N/A,,Clear,0,2014-04-14 08:15:00
1:35 AM,44.6,42.8,93,30.03,10.0,Calm,Calm,-,N/A,,Clear,0,2014-04-14 08:35:00
1:55 AM,44.6,42.8,93,30.02,10.0,Calm,Calm,-,N/A,,Clear,0,2014-04-14 08:55:00
2:15 AM,44.6,42.8,93,30.02,10.0,Calm,Calm,-,N/A,,Clear,0,2014-04-14 09:15:00
2:35 AM,44.6,41.0,87,30.02,10.0,Calm,Calm,-,N/A,,Clear,0,2014-04-14 09:35:00
2:55 AM,44.6,41.0,87,30.03,10.0,NE,3.5,-,N/A,,Clear,50,2014-04-14 09:55:00
3:15 AM,44.6,41.0,87,30.03,10.0,NE,3.5,-,N/A,,Clear,50,2014-04-14 10:15:00
3:35 AM,42.8,41.0,93,30.03,10.0,Calm,Calm,-,N/A,,Clear,0,2014-04-14 10:35:00
3:55 AM,42.8,41.0,93,30.03,10.0,Calm,Calm,-,N/A,,Clear,0,2014-04-14 10:55:00
4:15 AM,44.6,41.0,87,30.03,10.0,Calm,Calm,-,N/A,,Clear,0,2014-04-14 11:15:00
4:35 AM,44.6,41.0,87,30.03,10.0,Calm,Calm,-,N/A,,Clear,0,2014-04-14 11:35:00
4:55 AM,44.6,41.0,87,30.03,10.0,Calm,Calm,-,N/A,,Clear,0,2014-04-14 11:55:00
5:15 AM,42.8,41.0,93,30.04,10.0,Calm,Calm,-,N/A,,Clear,0,2014-04-14 12:15:00
5:35 AM,42.8,41.0,93,30.04,10.0,Calm,Calm,-,N/A,,Clear,0,2014-04-14 12:35:00
5:55 AM,42.8,39.2,87,30.04,10.0,NE,4.6,-,N/A,,Clear,50,2014-04-14 12:55:00
6:15 AM,42.8,39.2,87,30.06,10.0,Calm,Calm,-,N/A,,Clear,0,2014-04-14 13:15:00
6:35 AM,41.0,39.2,93,30.06,10.0,Calm,Calm,-,N/A,,Clear,0,2014-04-14 13:35:00
6:55 AM,44.6,41.0,87,30.07,10.0,Calm,Calm,-,N/A,,Clear,0,2014-04-14 13:55:00
7:15 AM,46.4,42.8,87,30.08,10.0,Calm,Calm,-,N/A,,Clear,0,2014-04-14 14:15:00
7:35 AM,50.0,44.6,82,30.08,10.0,Calm,Calm,-,N/A,,Clear,0,2014-04-14 14:35:00
7:55 AM,55.4,44.6,67,30.09,10.0,Calm,Calm,-,N/A,,Clear,0,2014-04-14 14:55:00
8:15 AM,59.0,42.8,55,30.09,10.0,Calm,Calm,-,N/A,,Clear,0,2014-04-14 15:15:00
8:35 AM,62.6,41.0,45,30.09,10.0,Calm,Calm,-,N/A,,Clear,0,2014-04-14 15:35:00
8:55 AM,64.4,37.4,37,30.10,10.0,SSE,4.6,-,N/A,,Clear,160,2014-04-14 15:55:00
9:15 AM,64.4,42.8,45,30.10,10.0,SSE,5.8,-,N/A,,Clear,160,2014-04-14 16:15:00
9:35 AM,66.2,44.6,46,30.10,10.0,SSE,6.9,-,N/A,,Clear,160,2014-04-14 16:35:00
9:55 AM,68.0,44.6,43,30.10,10.0,SSE,3.5,-,N/A,,Clear,160,2014-04-14 16:55:00
10:15 AM,68.0,46.4,46,30.11,10.0,SSW,4.6,-,N/A,,Clear,200,2014-04-14 17:15:00
10:55 AM,68.0,48.2,49,30.12,10.0,South,5.8,-,N/A,,Clear,180,2014-04-14 17:55:00
11:15 AM,69.8,50.0,49,30.13,10.0,SSW,6.9,-,N/A,,Clear,200,2014-04-14 18:15:00
11:35 AM,71.6,50.0,46,30.13,10.0,South,6.9,-,N/A,,Clear,190,2014-04-14 18:35:00
11:55 AM,71.6,50.0,46,30.13,10.0,SSE,4.6,-,N/A,,Clear,150,2014-04-14 18:55:00
12:15 PM,73.4,50.0,44,30.12,10.0,SSW,5.8,-,N/A,,Clear,200,2014-04-14 19:15:00
12:35 PM,73.4,48.2,41,30.11,10.0,South,6.9,-,N/A,,Clear,180,2014-04-14 19:35:00
12:55 PM,73.4,48.2,41,30.11,10.0,South,9.2,-,N/A,,Clear,180,2014-04-14 19:55:00
1:15 PM,73.4,48.2,41,30.11,10.0,South,8.1,-,N/A,,Clear,190,2014-04-14 20:15:00
1:35 PM,73.4,48.2,41,30.11,10.0,WSW,8.1,-,N/A,,Clear,250,2014-04-14 20:35:00
1:55 PM,73.4,48.2,41,30.11,10.0,WSW,8.1,-,N/A,,Clear,240,2014-04-14 20:55:00
2:15 PM,73.4,46.4,38,30.11,10.0,West,8.1,-,N/A,,Clear,260,2014-04-14 21:15:00
2:35 PM,75.2,48.2,38,30.10,10.0,WSW,6.9,-,N/A,,Clear,250,2014-04-14 21:35:00
2:55 PM,75.2,48.2,38,30.10,10.0,South,4.6,-,N/A,,Clear,190,2014-04-14 21:55:00
3:15 PM,73.4,46.4,38,30.09,10.0,South,3.5,-,N/A,,Clear,190,2014-04-14 22:15:00
3:35 PM,73.4,48.2,41,30.09,10.0,SW,4.6,-,N/A,,Clear,220,2014-04-14 22:35:00
3:55 PM,75.2,46.4,36,30.09,10.0,South,4.6,-,N/A,,Clear,180,2014-04-14 22:55:00
4:15 PM,73.4,46.4,38,30.08,10.0,SSW,5.8,-,N/A,,Clear,210,2014-04-14 23:15:00
4:35 PM,73.4,44.6,36,30.08,10.0,South,3.5,-,N/A,,Clear,190,2014-04-14 23:35:00
4:55 PM,73.4,44.6,36,30.08,10.0,WSW,5.8,-,N/A,,Clear,240,2014-04-14 23:55:00
5:15 PM,73.4,44.6,36,30.08,10.0,WSW,4.6,-,N/A,,Clear,240,2014-04-15 00:15:00
5:35 PM,73.4,44.6,36,30.08,10.0,WSW,6.9,-,N/A,,Clear,240,2014-04-15 00:35:00
5:55 PM,71.6,41.0,33,30.08,10.0,WSW,4.6,-,N/A,,Clear,250,2014-04-15 00:55:00
6:15 PM,69.8,41.0,35,30.07,10.0,SW,4.6,-,N/A,,Clear,230,2014-04-15 01:15:00
6:35 PM,68.0,42.8,40,30.07,10.0,WSW,3.5,-,N/A,,Clear,250,2014-04-15 01:35:00
6:55 PM,66.2,44.6,46,30.07,10.0,Calm,Calm,-,N/A,,Clear,0,2014-04-15 01:55:00
7:15 PM,62.6,44.6,52,30.07,10.0,ENE,3.5,-,N/A,,Clear,60,2014-04-15 02:15:00
7:35 PM,60.8,46.4,59,30.07,10.0,NE,3.5,-,N/A,,Clear,50,2014-04-15 02:35:00
7:55 PM,59.0,46.4,63,30.07,10.0,NE,4.6,-,N/A,,Clear,50,2014-04-15 02:55:00
8:15 PM,59.0,44.6,59,30.07,10.0,Calm,Calm,-,N/A,,Clear,0,2014-04-15 03:15:00
8:35 PM,55.4,44.6,67,30.08,10.0,Calm,Calm,-,N/A,,Clear,0,2014-04-15 03:35:00
8:55 PM,53.6,44.6,72,30.08,9.0,Calm,Calm,-,N/A,,Clear,0,2014-04-15 03:55:00
9:15 PM,53.6,44.6,72,30.08,10.0,Calm,Calm,-,N/A,,Clear,0,2014-04-15 04:15:00
9:35 PM,51.8,44.6,76,30.08,10.0,Calm,Calm,-,N/A,,Clear,0,2014-04-15 04:35:00
9:55 PM,51.8,44.6,76,30.08,10.0,Calm,Calm,-,N/A,,Clear,0,2014-04-15 04:55:00
10:15 PM,51.8,44.6,76,30.08,10.0,Calm,Calm,-,N/A,,Clear,0,2014-04-15 05:15:00
10:35 PM,51.8,44.6,76,30.08,10.0,Calm,Calm,-,N/A,,Partly Cloudy,0,2014-04-15 05:35:00
10:55 PM,50.0,44.6,82,30.08,10.0,Calm,Calm,-,N/A,,Partly Cloudy,0,2014-04-15 05:55:00
11:15 PM,50.0,44.6,82,30.08,10.0,Calm,Calm,-,N/A,,Partly Cloudy,0,2014-04-15 06:15:00
11:35 PM,50.0,44.6,82,30.08,10.0,Calm,Calm,-,N/A,,Partly Cloudy,0,2014-04-15 06:35:00
11:55 PM,50.0,46.4,87,30.07,10.0,Calm,Calm,-,N/A,,Clear,0,2014-04-15 06:55:00